When you browse on this site, cookies collect data to enhance your experience and personalize the content and advertising you see.
Visit our Privacy Policy to learn more. By continuing to use the site, you agree to this use of cookies and data.
  • In Österreich
  • Länderverzeichnis
  • Für 7 Tage
  • Wassertemperatur
  • Wetterkarte
  • News
  • Widgets
  • user-avatar
    Anmelden

    Stündliche Wetter Samos

    Heute, 21 Januar, Dienstag

    Zeit Temperatur Niederschläge Wind Luftdruck Luftfeuchtigkeit
    00:00 -3°C° 0 mm 9 m/S 734 mmHg 81%
    01:00 -3°C° 0 mm 9 m/S 733 mmHg 81%
    02:00 -3°C° 0 mm 9 m/S 733 mmHg 79%
    03:00 -3°C° 0 mm 9 m/S 733 mmHg 79%
    04:00 -4°C° 0 mm 9 m/S 733 mmHg 80%
    05:00 -4°C° 0 mm 9 m/S 732 mmHg 81%
    06:00 -4°C° 0 mm 9 m/S 732 mmHg 80%
    07:00 -4°C° 0 mm 9 m/S 733 mmHg 79%
    08:00 -5°C° 0 mm 8 m/S 733 mmHg 78%
    09:00 -2°C° 0 mm 8 m/S 733 mmHg 72%
    10:00 -1°C° 0 mm 8 m/S 733 mmHg 66%
    11:00 0°C° 0 mm 8 m/S 733 mmHg 60%
    12:00 +1°C° 0 mm 9 m/S 732 mmHg 58%
    13:00 +2°C° 0 mm 9 m/S 732 mmHg 56%
    14:00 +2°C° 0 mm 9 m/S 732 mmHg 54%
    15:00 +2°C° 0 mm 9 m/S 731 mmHg 57%
    16:00 +1°C° 0 mm 9 m/S 731 mmHg 60%
    17:00 +1°C° 0 mm 9 m/S 731 mmHg 63%
    18:00 0°C° 0 mm 9 m/S 731 mmHg 67%
    19:00 -1°C° 0 mm 9 m/S 731 mmHg 70%
    20:00 -3°C° 0 mm 9 m/S 731 mmHg 74%
    21:00 -3°C° 0 mm 9 m/S 731 mmHg 76%
    22:00 -3°C° 0 mm 9 m/S 730 mmHg 78%
    23:00 -4°C° 0 mm 9 m/S 730 mmHg 79%

    Morgen, 22 Januar, Mittwoch

    Zeit Temperatur Niederschläge Wind Luftdruck Luftfeuchtigkeit
    00:00 -4°C° 0 mm 8 m/S 730 mmHg 80%
    01:00 -4°C° 0 mm 8 m/S 729 mmHg 81%
    02:00 -5°C° 0 mm 8 m/S 729 mmHg 82%
    03:00 -5°C° 0 mm 8 m/S 729 mmHg 82%
    04:00 -5°C° 0 mm 8 m/S 728 mmHg 82%
    05:00 -5°C° 0 mm 8 m/S 728 mmHg 82%
    06:00 -5°C° 0 mm 8 m/S 728 mmHg 81%
    07:00 -5°C° 0 mm 8 m/S 728 mmHg 80%
    08:00 -5°C° 0 mm 8 m/S 728 mmHg 78%
    09:00 -2°C° 0 mm 7 m/S 728 mmHg 70%
    10:00 0°C° 0 mm 7 m/S 728 mmHg 62%
    11:00 +2°C° 0 mm 6 m/S 728 mmHg 55%
    12:00 +4°C° 0 mm 6 m/S 728 mmHg 51%
    13:00 +5°C° 0 mm 6 m/S 727 mmHg 48%
    14:00 +7°C° 0 mm 6 m/S 727 mmHg 44%
    15:00 +7°C° 0 mm 6 m/S 726 mmHg 47%
    16:00 +5°C° 0 mm 6 m/S 726 mmHg 50%
    17:00 +4°C° 0 mm 6 m/S 726 mmHg 53%
    18:00 +5°C° 0 mm 5 m/S 726 mmHg 54%
    19:00 +3°C° 0 mm 5 m/S 725 mmHg 54%
    20:00 +2°C° 0 mm 5 m/S 725 mmHg 55%
    21:00 +1°C° 0 mm 4 m/S 725 mmHg 56%
    22:00 +1°C° 0 mm 4 m/S 725 mmHg 56%
    23:00 +1°C° 0 mm 4 m/S 725 mmHg 57%

    übermorgen, 23 Januar, Donnerstag

    Zeit Temperatur Niederschläge Wind Luftdruck Luftfeuchtigkeit
    00:00 +1°C° 0 mm 4 m/S 725 mmHg 57%
    01:00 0°C° 0 mm 4 m/S 724 mmHg 57%
    02:00 0°C° 0 mm 4 m/S 724 mmHg 57%
    03:00 0°C° 0 mm 4 m/S 724 mmHg 58%
    04:00 0°C° 0 mm 4 m/S 724 mmHg 58%
    05:00 0°C° 0 mm 4 m/S 723 mmHg 59%
    06:00 0°C° 0 mm 4 m/S 723 mmHg 59%
    07:00 0°C° 0 mm 4 m/S 723 mmHg 59%
    08:00 0°C° 0 mm 4 m/S 724 mmHg 58%
    09:00 +1°C° 0 mm 5 m/S 724 mmHg 55%
    10:00 +3°C° 0 mm 5 m/S 724 mmHg 51%
    11:00 +5°C° 0 mm 6 m/S 724 mmHg 47%
    12:00 +7°C° 0 mm 6 m/S 724 mmHg 45%
    13:00 +8°C° 0 mm 6 m/S 725 mmHg 42%
    14:00 +9°C° 0 mm 7 m/S 725 mmHg 40%
    15:00 +8°C° 0 mm 7 m/S 725 mmHg 46%
    16:00 +6°C° 0 mm 8 m/S 725 mmHg 51%
    17:00 +5°C° 0 mm 9 m/S 725 mmHg 57%
    18:00 +2°C° 0 mm 9 m/S 726 mmHg 59%
    19:00 +1°C° 0 mm 9 m/S 726 mmHg 61%
    20:00 0°C° 0 mm 9 m/S 727 mmHg 63%
    21:00 -1°C° 0 mm 9 m/S 727 mmHg 65%
    22:00 -1°C° 0 mm 8 m/S 728 mmHg 67%
    23:00 -2°C° 0 mm 8 m/S 728 mmHg 69%

    24 Januar, Freitag

    Zeit Temperatur Niederschläge Wind Luftdruck Luftfeuchtigkeit
    00:00 -4°C° 0 mm 8 m/S 728 mmHg 70%
    01:00 -4°C° 0 mm 8 m/S 729 mmHg 72%
    02:00 -5°C° 0 mm 8 m/S 729 mmHg 73%
    03:00 -4°C° 0 mm 7 m/S 729 mmHg 73%
    04:00 -4°C° 0 mm 7 m/S 729 mmHg 72%
    05:00 -4°C° 0 mm 7 m/S 729 mmHg 71%
    06:00 -4°C° 0 mm 7 m/S 729 mmHg 67%
    07:00 -4°C° 0 mm 7 m/S 730 mmHg 64%
    08:00 -4°C° 0 mm 7 m/S 730 mmHg 60%
    09:00 -3°C° 0 mm 6 m/S 730 mmHg 54%
    10:00 -1°C° 0 mm 6 m/S 730 mmHg 47%
    11:00 +2°C° 0 mm 6 m/S 731 mmHg 41%
    12:00 +3°C° 0 mm 5 m/S 730 mmHg 40%
    13:00 +5°C° 0 mm 5 m/S 730 mmHg 38%
    14:00 +6°C° 0 mm 5 m/S 729 mmHg 37%
    15:00 +5°C° 0 mm 5 m/S 729 mmHg 41%
    16:00 +3°C° 0 mm 5 m/S 729 mmHg 44%
    17:00 +3°C° 0 mm 5 m/S 729 mmHg 47%
    18:00 +2°C° 0 mm 5 m/S 729 mmHg 49%
    19:00 +1°C° 0 mm 5 m/S 729 mmHg 51%
    20:00 0°C° 0 mm 5 m/S 730 mmHg 52%
    21:00 0°C° 0 mm 4 m/S 730 mmHg 53%
    22:00 -1°C° 0 mm 4 m/S 730 mmHg 53%
    23:00 -1°C° 0 mm 4 m/S 730 mmHg 53%

    25 Januar, Samstag

    Zeit Temperatur Niederschläge Wind Luftdruck Luftfeuchtigkeit
    00:00 -2°C° 0 mm 4 m/S 729 mmHg 52%
    01:00 -2°C° 0 mm 4 m/S 729 mmHg 51%
    02:00 -1°C° 0 mm 3 m/S 729 mmHg 50%
    03:00 -1°C° 0 mm 3 m/S 728 mmHg 49%
    04:00 -1°C° 0 mm 3 m/S 728 mmHg 49%
    05:00 -1°C° 0 mm 3 m/S 728 mmHg 48%
    06:00 -1°C° 0 mm 3 m/S 728 mmHg 47%
    07:00 -1°C° 0 mm 3 m/S 728 mmHg 46%
    08:00 -1°C° 0 mm 2 m/S 728 mmHg 45%
    09:00 +2°C° 0 mm 2 m/S 729 mmHg 41%
    10:00 +5°C° 0 mm 1 m/S 729 mmHg 37%
    11:00 +7°C° 0 mm 1 m/S 729 mmHg 32%
    12:00 +8°C° 0 mm 1 m/S 729 mmHg 33%
    13:00 +8°C° 0 mm 1 m/S 729 mmHg 33%
    14:00 +9°C° 0 mm 1 m/S 728 mmHg 34%
    15:00 +8°C° 0 mm 1 m/S 728 mmHg 38%
    16:00 +7°C° 0 mm 1 m/S 728 mmHg 43%
    17:00 +5°C° 0 mm 0 m/S 728 mmHg 47%
    18:00 +6°C° 0 mm 1 m/S 728 mmHg 48%
    19:00 +6°C° 0 mm 1 m/S 728 mmHg 49%
    20:00 +5°C° 0 mm 1 m/S 728 mmHg 50%
    21:00 +4°C° 0 mm 2 m/S 728 mmHg 51%
    22:00 +4°C° 0 mm 2 m/S 729 mmHg 53%
    23:00 +2°C° 0 mm 3 m/S 729 mmHg 55%

    26 Januar, Sonntag

    Zeit Temperatur Niederschläge Wind Luftdruck Luftfeuchtigkeit
    00:00 +2°C° 0 mm 3 m/S 729 mmHg 56%
    01:00 +2°C° 0 mm 3 m/S 728 mmHg 57%
    02:00 +1°C° 0 mm 4 m/S 728 mmHg 58%
    03:00 +1°C° 0 mm 4 m/S 728 mmHg 58%
    04:00 +1°C° 0 mm 4 m/S 728 mmHg 59%
    05:00 +1°C° 0 mm 5 m/S 728 mmHg 59%
    06:00 +1°C° 0 mm 5 m/S 729 mmHg 59%
    07:00 +1°C° 0 mm 5 m/S 729 mmHg 59%
    08:00 +1°C° 0 mm 5 m/S 729 mmHg 60%
    09:00 +3°C° 0 mm 5 m/S 729 mmHg 58%
    10:00 +6°C° 0 mm 5 m/S 730 mmHg 57%
    11:00 +8°C° 0 mm 5 m/S 730 mmHg 56%
    12:00 +9°C° 0 mm 6 m/S 729 mmHg 57%
    13:00 +10°C° 0 mm 6 m/S 729 mmHg 59%
    14:00 +11°C° 0 mm 6 m/S 728 mmHg 60%
    15:00 +10°C° 0 mm 6 m/S 728 mmHg 64%
    16:00 +9°C° 0 mm 6 m/S 728 mmHg 67%
    17:00 +9°C° 0 mm 6 m/S 728 mmHg 70%
    18:00 +8°C° 0 mm 6 m/S 728 mmHg 73%
    19:00 +8°C° 0 mm 6 m/S 728 mmHg 75%
    20:00 +7°C° 0 mm 6 m/S 728 mmHg 78%
    21:00 +7°C° 0 mm 6 m/S 728 mmHg 78%
    22:00 +7°C° 0 mm 6 m/S 728 mmHg 77%
    23:00 +6°C° 0 mm 5 m/S 728 mmHg 77%
    Mehr zeigen